User: anonymous   Login
Location: Cul de Sac
(18.0387°N, 63.0654°W)
Time: 11:58:32
(UTC+00:00)
Language:

Fermi - Orbit

View from above orbital plane
View from above orbital plane
View from above satellite
View from above satellite

Ground track
Ground track

The orbit data is extracted from the following two-line orbital elements,

1 33053U 08029A   21023.16958179  .00000537  00000-0  13913-4 0  9993
2 33053  25.5838  44.0161 0012481  32.2896 327.8401 15.11447513696614
Epoch (UTC): 23 January 2021 04:04:11
Eccentricity: 0.0012481
inclination: 25.5838°
perigee height: 523 km
apogee height: 540 km
right ascension of ascending node: 44.0161°
argument of perigee: 32.2896°
revolutions per day: 15.11447513
mean anomaly at epoch: 327.8401°
orbit number at epoch: 69661

The dashed part of the orbit path shows where the satellite is in the earth's shadow,  

DLR